When you browse on this site, cookies collect data to enhance your experience and personalize the content and advertising you see.
Visit our Privacy Policy to learn more. By continuing to use the site, you agree to this use of cookies and data.
EN

Hourly Weather Pontypool

Today, 4 July, Saturday

Time Temperature Precipitation Wind Pressure Humidity
00:00 +15°C° 0.4 mm 7 mps 743 mmHg 96%
01:00 +15°C° 0.5 mm 7 mps 742 mmHg 96%
02:00 +15°C° 0.5 mm 7 mps 742 mmHg 96%
03:00 +15°C° 0.5 mm 7 mps 742 mmHg 96%
04:00 +15°C° 0.1 mm 7 mps 742 mmHg 96%
05:00 +15°C° 0.1 mm 7 mps 742 mmHg 96%
06:00 +15°C° 0.1 mm 7 mps 742 mmHg 95%
07:00 +15°C° 0 mm 7 mps 742 mmHg 94%
08:00 +16°C° 0 mm 7 mps 742 mmHg 93%
09:00 +16°C° 0 mm 7 mps 742 mmHg 91%
10:00 +16°C° 0 mm 7 mps 743 mmHg 91%
11:00 +16°C° 0 mm 7 mps 743 mmHg 90%
12:00 +16°C° 0 mm 7 mps 743 mmHg 89%
13:00 +16°C° 0 mm 7 mps 743 mmHg 89%
14:00 +16°C° 0 mm 7 mps 743 mmHg 89%
15:00 +16°C° 0 mm 7 mps 742 mmHg 90%
16:00 +16°C° 0 mm 7 mps 742 mmHg 90%
17:00 +16°C° 0 mm 7 mps 742 mmHg 91%
18:00 +16°C° 0 mm 7 mps 743 mmHg 92%
19:00 +16°C° 0 mm 8 mps 743 mmHg 90%
20:00 +16°C° 0 mm 8 mps 743 mmHg 89%
21:00 +16°C° 0 mm 8 mps 743 mmHg 87%
22:00 +16°C° 0 mm 9 mps 743 mmHg 88%
23:00 +16°C° 0 mm 9 mps 742 mmHg 89%

Tomorrow, 5 July, Sunday

Time Temperature Precipitation Wind Pressure Humidity
00:00 +16°C° 0 mm 9 mps 742 mmHg 90%
01:00 +16°C° 0.2 mm 9 mps 742 mmHg 90%
02:00 +14°C° 0.2 mm 10 mps 741 mmHg 91%
03:00 +14°C° 0.2 mm 10 mps 741 mmHg 91%
04:00 +14°C° 0.2 mm 10 mps 741 mmHg 92%
05:00 +15°C° 0.2 mm 9 mps 741 mmHg 92%
06:00 +15°C° 0.2 mm 9 mps 741 mmHg 92%
07:00 +15°C° 0.1 mm 9 mps 741 mmHg 89%
08:00 +15°C° 0.1 mm 9 mps 742 mmHg 85%
09:00 +15°C° 0.1 mm 8 mps 742 mmHg 82%
10:00 +15°C° 0 mm 9 mps 742 mmHg 78%
11:00 +15°C° 0 mm 9 mps 743 mmHg 74%
12:00 +15°C° 0 mm 9 mps 743 mmHg 69%
13:00 +15°C° 0 mm 9 mps 743 mmHg 69%
14:00 +15°C° 0 mm 9 mps 743 mmHg 69%
15:00 +13°C° 0 mm 9 mps 744 mmHg 69%
16:00 +13°C° 0.1 mm 9 mps 744 mmHg 71%
17:00 +12°C° 0.1 mm 9 mps 744 mmHg 73%
18:00 +12°C° 0.1 mm 9 mps 744 mmHg 75%
19:00 +11°C° 0 mm 9 mps 744 mmHg 75%
20:00 +11°C° 0 mm 8 mps 744 mmHg 75%
21:00 +10°C° 0 mm 8 mps 744 mmHg 75%
22:00 +10°C° 0 mm 8 mps 744 mmHg 77%
23:00 +10°C° 0 mm 8 mps 745 mmHg 78%

Day after tomorrow, 6 July, Monday

Time Temperature Precipitation Wind Pressure Humidity
00:00 +9°C° 0 mm 8 mps 745 mmHg 80%
01:00 +9°C° 0 mm 7 mps 745 mmHg 82%
02:00 +9°C° 0 mm 7 mps 745 mmHg 84%
03:00 +9°C° 0 mm 6 mps 746 mmHg 87%
04:00 +9°C° 0 mm 6 mps 746 mmHg 85%
05:00 +9°C° 0 mm 6 mps 747 mmHg 83%
06:00 +10°C° 0 mm 6 mps 747 mmHg 82%
07:00 +10°C° 0 mm 7 mps 748 mmHg 79%
08:00 +11°C° 0 mm 7 mps 748 mmHg 77%
09:00 +12°C° 0 mm 7 mps 748 mmHg 75%
10:00 +14°C° 0 mm 7 mps 749 mmHg 73%
11:00 +14°C° 0 mm 7 mps 749 mmHg 71%
12:00 +15°C° 0 mm 7 mps 750 mmHg 68%
13:00 +16°C° 0.1 mm 7 mps 750 mmHg 68%
14:00 +16°C° 0.1 mm 7 mps 751 mmHg 67%
15:00 +17°C° 0.1 mm 6 mps 751 mmHg 67%
16:00 +16°C° 0 mm 6 mps 751 mmHg 69%
17:00 +16°C° 0 mm 6 mps 751 mmHg 70%
18:00 +15°C° 0 mm 5 mps 752 mmHg 72%
19:00 +13°C° 0 mm 4 mps 752 mmHg 77%
20:00 +12°C° 0 mm 3 mps 752 mmHg 82%
21:00 +10°C° 0 mm 2 mps 752 mmHg 87%
22:00 +10°C° 0 mm 2 mps 752 mmHg 87%
23:00 +9°C° 0 mm 2 mps 753 mmHg 87%

7 July, Tuesday

Time Temperature Precipitation Wind Pressure Humidity
00:00 +10°C° 0 mm 1 mps 753 mmHg 87%
01:00 +9°C° 0 mm 1 mps 753 mmHg 87%
02:00 +9°C° 0 mm 1 mps 752 mmHg 87%
03:00 +9°C° 0 mm 1 mps 752 mmHg 88%
04:00 +10°C° 0 mm 1 mps 753 mmHg 87%
05:00 +11°C° 0 mm 1 mps 753 mmHg 86%
06:00 +12°C° 0 mm 1 mps 753 mmHg 85%
07:00 +13°C° 0 mm 1 mps 753 mmHg 78%
08:00 +14°C° 0 mm 1 mps 753 mmHg 72%
09:00 +16°C° 0 mm 2 mps 753 mmHg 66%
10:00 +16°C° 0 mm 2 mps 753 mmHg 64%
11:00 +17°C° 0 mm 3 mps 753 mmHg 62%
12:00 +18°C° 0 mm 3 mps 753 mmHg 61%
13:00 +18°C° 0 mm 4 mps 753 mmHg 62%
14:00 +18°C° 0 mm 4 mps 752 mmHg 64%
15:00 +17°C° 0 mm 5 mps 752 mmHg 65%
16:00 +17°C° 0 mm 4 mps 752 mmHg 69%
17:00 +15°C° 0 mm 4 mps 752 mmHg 72%
18:00 +15°C° 0 mm 4 mps 752 mmHg 76%
19:00 +14°C° 0 mm 3 mps 752 mmHg 76%
20:00 +13°C° 0 mm 3 mps 752 mmHg 77%
21:00 +13°C° 0 mm 2 mps 752 mmHg 78%
22:00 +13°C° 0 mm 2 mps 752 mmHg 80%
23:00 +11°C° 0 mm 3 mps 752 mmHg 83%

8 July, Wednesday

Time Temperature Precipitation Wind Pressure Humidity
00:00 +11°C° 0 mm 3 mps 751 mmHg 85%
01:00 +11°C° 0 mm 3 mps 751 mmHg 87%
02:00 +11°C° 0 mm 4 mps 751 mmHg 90%
03:00 +11°C° 0 mm 4 mps 750 mmHg 92%
04:00 +12°C° 0 mm 5 mps 750 mmHg 91%
05:00 +13°C° 0 mm 5 mps 750 mmHg 89%
06:00 +14°C° 0 mm 6 mps 750 mmHg 88%
07:00 +14°C° 0 mm 7 mps 749 mmHg 87%
08:00 +15°C° 0 mm 7 mps 749 mmHg 86%
09:00 +16°C° 0 mm 7 mps 749 mmHg 86%
10:00 +16°C° 0 mm 8 mps 749 mmHg 85%
11:00 +16°C° 0 mm 8 mps 749 mmHg 84%
12:00 +16°C° 0 mm 9 mps 749 mmHg 84%
13:00 +16°C° 0 mm 9 mps 748 mmHg 85%
14:00 +16°C° 0 mm 8 mps 748 mmHg 85%
15:00 +16°C° 0 mm 8 mps 748 mmHg 86%
16:00 +16°C° 0 mm 8 mps 748 mmHg 87%
17:00 +16°C° 0 mm 7 mps 748 mmHg 89%
18:00 +15°C° 0 mm 7 mps 748 mmHg 90%
19:00 +15°C° 0.1 mm 6 mps 748 mmHg 92%
20:00 +15°C° 0.1 mm 5 mps 749 mmHg 93%
21:00 +14°C° 0.1 mm 4 mps 749 mmHg 94%
22:00 +13°C° 0 mm 3 mps 749 mmHg 94%
23:00 +13°C° 0 mm 2 mps 749 mmHg 94%

9 July, Thursday

Time Temperature Precipitation Wind Pressure Humidity
00:00 +12°C° 0 mm 2 mps 749 mmHg 94%
01:00 +10°C° 0 mm 2 mps 749 mmHg 93%
02:00 +11°C° 0 mm 1 mps 749 mmHg 93%
03:00 +10°C° 0 mm 1 mps 749 mmHg 92%
04:00 +10°C° 0 mm 1 mps 750 mmHg 91%
05:00 +11°C° 0 mm 1 mps 750 mmHg 89%
06:00 +11°C° 0 mm 1 mps 750 mmHg 87%
07:00 +13°C° 0 mm 1 mps 750 mmHg 81%
08:00 +14°C° 0 mm 1 mps 751 mmHg 74%
09:00 +16°C° 0 mm 1 mps 751 mmHg 68%
10:00 +18°C° 0 mm 1 mps 751 mmHg 65%
11:00 +19°C° 0 mm 1 mps 751 mmHg 62%
12:00 +20°C° 0 mm 1 mps 751 mmHg 58%
13:00 +19°C° 0 mm 1 mps 751 mmHg 62%
14:00 +17°C° 0 mm 2 mps 751 mmHg 66%
15:00 +17°C° 0 mm 2 mps 750 mmHg 70%
16:00 +16°C° 0.4 mm 2 mps 750 mmHg 76%
17:00 +15°C° 0.4 mm 1 mps 750 mmHg 82%
18:00 +14°C° 0.4 mm 1 mps 749 mmHg 89%
19:00 +13°C° 1.4 mm 1 mps 749 mmHg 91%
20:00 +13°C° 1.4 mm 2 mps 749 mmHg 94%
21:00 +12°C° 1.4 mm 2 mps 749 mmHg 96%
22:00 +12°C° 0.5 mm 2 mps 748 mmHg 97%
23:00 +12°C° 0.5 mm 2 mps 748 mmHg 97%
Show more